Redmond, OR

1:42 PM PST on December 06, 2019 (GMT -0800)
Roberts Field Airport

Weather History for KRDM - August, 2019

Change the Weather History Date:

Monday, August 19, 2019

  Actual Average Record
Temperature  
Mean Temperature 69 °F 65 °F  
Max Temperature 90 °F 84 °F 105 °F (1967)
Min Temperature 48 °F 45 °F 31 °F (1964)
Degree Days  
Heating Degree Days 0 3  
Month to date heating degree days 8 38  
Since 1 June heating degree days 190 324  
Since 1 July heating degree days 41 107  
Cooling Degree Days 4 2  
Month to date cooling degree days 100 61  
Year to date cooling degree days 206 187  
Since 1 June cooling degree days 206 182  
Growing Degree Days 18 (Base 50)    
Moisture  
Dew Point 42 °F    
Average Humidity 44    
Maximum Humidity 71    
Minimum Humidity 17    
Precipitation  
Precipitation 0.00 in 0.01 in 0.32 in (1979)
Month to date precipitation T 0.30  
Year to date precipitation 7.46 5.53  
Sea Level Pressure  
Sea Level Pressure 29.89 in    
Wind  
Wind Speed 5 mph (North)    
Max Wind Speed 15 mph    
Max Gust Speed 22 mph    
Visibility 10 miles    
Events      
T = Trace of Precipitation, MM = Missing Value Source: NWS Daily Summary

Daily Weather History Graph

Daily Weather History Graph

Search for Another Location

Airport or City:

Astronomy

Aug. 19, 2019 Rise Set
Actual Time 6:12 AM PDT 8:03 PM PDT
Civil Twilight 5:41 AM PDT 8:34 PM PDT
Nautical Twilight 5:03 AM PDT 9:11 PM PDT
Astronomical Twilight 4:22 AM PDT 9:52 PM PDT
Moon 10:18 PM PDT (8/19) 10:06 AM PDT (8/19)
Length of Visible Light 14h 52m
Length of Day
13h 50m
Waning Gibbous, 84% of the Moon is Illuminated
Aug 19
Waning Gibbous
Aug 23
Last Quarter
Aug 30
New
Sep 5
First Quarter
Sep 13
Full

Hourly Weather History & Observations

Time (PDT) Temp. Dew Point Humidity Pressure Visibility Wind Dir Wind Speed Gust Speed Precip Events Conditions
12:56 AM 57.9 °F 42.1 °F 56% 29.84 in 10.0 mi SSW 3.5 mph - N/A   Clear
1:56 AM 54.0 °F 41.0 °F 62% 29.86 in 10.0 mi South 3.5 mph - N/A   Clear
2:56 AM 54.0 °F 42.1 °F 64% 29.86 in 10.0 mi Calm Calm - N/A   Clear
3:56 AM 52.0 °F 41.0 °F 66% 29.87 in 10.0 mi Calm Calm - N/A   Clear
4:56 AM 50.0 °F 39.9 °F 68% 29.88 in 10.0 mi South 4.6 mph - N/A   Clear
5:56 AM 48.9 °F 39.9 °F 71% 29.90 in 10.0 mi SE 3.5 mph - N/A   Clear
6:56 AM 52.0 °F 42.1 °F 69% 29.92 in 10.0 mi SSE 4.6 mph - N/A   Clear
7:56 AM 61.0 °F 44.1 °F 54% 29.93 in 10.0 mi Calm Calm - N/A   Clear
8:56 AM 66.9 °F 45.0 °F 45% 29.94 in 10.0 mi ESE 3.5 mph - N/A   Clear
9:56 AM 72.0 °F 45.0 °F 38% 29.93 in 10.0 mi Calm Calm - N/A   Clear
10:56 AM 78.1 °F 39.0 °F 25% 29.92 in 10.0 mi NNE 4.6 mph - N/A   Clear
11:56 AM 82.0 °F 39.0 °F 22% 29.92 in 10.0 mi NNE 6.9 mph - N/A   Clear
12:56 PM 82.9 °F 37.0 °F 19% 29.91 in 10.0 mi Variable 4.6 mph - N/A   Clear
1:56 PM 84.9 °F 37.9 °F 19% 29.91 in 10.0 mi Variable 4.6 mph - N/A   Clear
2:56 PM 87.1 °F 37.0 °F 17% 29.89 in 10.0 mi ENE 5.8 mph - N/A   Clear
3:56 PM 88.0 °F 39.0 °F 18% 29.88 in 10.0 mi North 10.4 mph - N/A   Clear
4:56 PM 89.1 °F 39.9 °F 18% 29.87 in 10.0 mi North 6.9 mph - N/A   Clear
5:56 PM 88.0 °F 37.9 °F 17% 29.87 in 10.0 mi North 9.2 mph - N/A   Clear
6:56 PM 86.0 °F 37.9 °F 18% 29.86 in 10.0 mi North 11.5 mph - N/A   Clear
7:56 PM 81.0 °F 41.0 °F 24% 29.88 in 10.0 mi NNW 8.1 mph - N/A   Clear
8:56 PM 78.1 °F 46.9 °F 33% 29.89 in 10.0 mi NNW 11.5 mph - N/A   Clear
9:56 PM 75.0 °F 50.0 °F 41% 29.91 in 10.0 mi NW 11.5 mph - N/A   Clear
10:56 PM 72.0 °F 50.0 °F 46% 29.91 in 10.0 mi NW 5.8 mph - N/A   Clear
11:56 PM 71.1 °F 50.0 °F 47% 29.91 in 10.0 mi NW 8.1 mph - N/A   Clear